Miscellaneous Local Product
Issued by NWS Hastings, NE

Home | Current Version | Previous Version | Graphics & Text | Print | Product List | Glossary On
Versions: 1 2 3 4 5 6 7 8 9 10 11 12 13 14 15 16 17 18 19 20 21 22 23 24 25 26 27 28 29 30 31 32 33 34 35 36 37 38 39 40 41 42 43 44 45 46 47 48 49 50
931
AXUS43 KGID 130102
MISGRI

GID CWA HOURLY WEATHER ROUNDUP
NATIONAL WEATHER SERVICE HASTINGS NE
700 PM CST FRI FEB 12 2016

NOTE: "FAIR" INDICATES FEW OR NO CLOUDS BELOW 12,000 FEET WITH NO
SIGNIFICANT WEATHER AND/OR OBSTRUCTIONS TO VISIBILITY.

...SOUTH CENTRAL NEBRASKA...

CITY           SKY/WX    TMP DP  RH WIND       PRES   REMARKS
GRAND ISLAND   CLOUDY    20  13  74 NE14      30.53R WCI   7
HASTINGS       CLOUDY    23  14  68 NE10      30.51R WCI  12
KEARNEY        CLOUDY    25  18  74 E13       30.49S WCI  13
ORD            CLOUDY    21  14  74 NE7       30.51R WCI  12
YORK           CLOUDY    19  14  79 NE12      30.55R WCI   7
AURORA         CLOUDY    21  14  74 NE10      30.54R WCI  10
LEXINGTON      CLOUDY    27  22  81 E9        30.48R WCI  18
HOLDREGE       CLOUDY    26  21  82 E10       30.47R WCI  16
HEBRON         CLOUDY    25  17  72 NE12      30.55R WCI  14

...NEBRASKA PANHANDLE...

CITY           SKY/WX    TMP DP  RH WIND       PRES   REMARKS
CHADRON        CLOUDY    34  27  75 SE6       30.32S WCI  29
ALLIANCE       CLOUDY    33  29  85 SE10      30.31R WCI  25
SCOTTSBLUFF    CLOUDY    34  30  85 SE15      30.30R WCI  24
SIDNEY         FOG       30  30 100 SE13      30.32R VSB 1/2 WCI  20

...WESTERN AND NORTH CENTRAL NEBRASKA...

CITY           SKY/WX    TMP DP  RH WIND       PRES   REMARKS
VALENTINE      CLOUDY    24  16  71 E8        30.46R WCI  15
AINSWORTH      CLOUDY    23  16  74 E9        30.47R WCI  13
ONEILL         CLOUDY    18  10  70 NE10      30.52S WCI   6
BROKEN BOW     CLOUDY    25  18  74 E9        30.46R WCI  15
IMPERIAL       CLOUDY    33  29  85 SE9       30.37S WCI  25
NORTH PLATTE   CLOUDY    29  25  85 E8        30.43R WCI  21
MCCOOK         CLOUDY    32  28  85 E12       30.43R WCI  23

...EASTERN NEBRASKA...

CITY           SKY/WX    TMP DP  RH WIND       PRES   REMARKS
NORFOLK          N/A     15   5  64 N10       30.58R WCI   2
SO SIOUX CITY  CLOUDY    12   1  61 N12       30.62R WCI  -2
TEKAMAH        PTCLDY    11   3  70 N9        30.62R WCI  -2
COLUMBUS       CLOUDY    16   1  53 NE6       30.59R WCI   7
ALBION         CLOUDY    17  10  75 NE10      30.55R WCI   4
OMAHA EPPLEY   CLOUDY    15   4  61 N12       30.62R WCI   2
OFFUTT AFB     CLOUDY    16   2  53 N7        30.60R WCI   6
MILLARD        CLOUDY    17   2  52 N7        30.60R WCI   7
LINCOLN        CLOUDY    18   9  68 N12       30.61R WCI   5
NEBRASKA CITY  PTCLDY    19   4  53 N9        30.58R WCI   8
BEATRICE       CLOUDY    22  15  74 NE10      30.56R WCI  11
FALLS CITY     CLEAR     21   9  59 NE12      30.57R WCI   9

...NORTHERN KANSAS...

CITY           SKY/WX    TMP DP  RH WIND       PRES   REMARKS
GOODLAND       CLOUDY    31  29  92 E15       30.36R WCI  20
HILL CITY      CLOUDY    34  27  75 E9        30.45S WCI  27
NORTON         CLOUDY    30  25  80 NE14      30.44  WCI  20
PHILLIPSBURG   CLOUDY    30  27  86 NE14      30.49S WCI  20
SMITH CENTER   CLOUDY    27  23  86 NE12      30.52R WCI  16
BELOIT         CLOUDY    28  19  69 N12       30.52S WCI  18
HAYS           CLOUDY    34  19  55 E14       30.46R WCI  24
RUSSELL        CLOUDY    32  25  75 E13       30.48R WCI  22
CONCORDIA      CLOUDY    27  15  61 NE13      30.53R WCI  16
SALINA         CLOUDY    33  21  61 NE10      30.52S WCI  25
TOPEKA         CLEAR     28   9  44 NE12      30.54R WCI  18



USA.gov is the U.S. government's official web portal to all federal, state and local government web resources and services.